| time (UTC) | temp F | wind direction | speed MPH | gust MPH | rain 1hr in | rain 24hr in | rain mn in | humidity % | barometer mb |
| 20260504173047 | 85 | 292 | 12.0 | 20.0 | 0.00 | 0.00 | 0.00 | 24 | 1012.2 |
| 20260504171553 | 85 | 298 | 12.0 | 18.0 | 0.00 | 0.00 | 0.00 | 24 | 1012.3 |
| 20260504100106 | 62 | 9 | 2.0 | 4.0 | 0.00 | 0.00 | 0.00 | 70 | 1011.2 |
| 20260504081548 | 65 | 279 | 0.0 | 0.0 | 0.00 | 0.00 | 0.00 | 59 | 1011.9 |
| 20260504044552 | 70 | 147 | 3.0 | 8.0 | 0.00 | 0.00 | 0.00 | 55 | 1012.9 |
| 20260504043059 | 69 | 140 | 3.0 | 4.0 | 0.00 | 0.00 | 0.00 | 55 | 1012.8 |
| 20260504041546 | 71 | 132 | 2.0 | 4.0 | 0.00 | 0.00 | 0.00 | 51 | 1013.3 |
| 20260504034555 | 73 | 144 | 0.0 | 5.0 | 0.00 | 0.00 | 0.00 | 45 | 1013.5 |
| 20260504033056 | 72 | 136 | 3.0 | 6.0 | 0.00 | 0.00 | 0.00 | 45 | 1013.1 |
| 20260504031547 | 71 | 119 | 4.0 | 8.0 | 0.00 | 0.00 | 0.00 | 48 | 1013.0 |
| 20260504030050 | 71 | 110 | 3.0 | 8.0 | 0.00 | 0.00 | 0.00 | 51 | 1012.9 |
| 20260504024550 | 68 | 103 | 0.0 | 2.0 | 0.00 | 0.00 | 0.00 | 59 | 1012.7 |
| 20260504023053 | 71 | 103 | 3.0 | 7.0 | 0.00 | 0.00 | 0.00 | 52 | 1012.7 |
| 20260504021548 | 71 | 92 | 3.0 | 6.0 | 0.00 | 0.00 | 0.00 | 51 | 1012.8 |
| 20260504020056 | 73 | 90 | 6.0 | 9.0 | 0.00 | 0.00 | 0.00 | 47 | 1012.8 |
| 20260504014556 | 73 | 116 | 6.0 | 9.0 | 0.00 | 0.00 | 0.00 | 47 | 1012.8 |
| 20260504013050 | 73 | 116 | 2.0 | 7.0 | 0.00 | 0.00 | 0.00 | 48 | 1013.0 |
| 20260504011550 | 73 | 110 | 3.0 | 7.0 | 0.00 | 0.00 | 0.00 | 48 | 1012.9 |
| 20260504010052 | 73 | 103 | 4.0 | 7.0 | 0.00 | 0.00 | 0.00 | 48 | 1012.9 |
| 20260504004548 | 74 | 101 | 1.0 | 2.0 | 0.00 | 0.00 | 0.00 | 50 | 1013.1 |
| 20260504003048 | 76 | 105 | 2.0 | 3.0 | 0.00 | 0.00 | 0.00 | 45 | 1013.3 |
| 20260504001551 | 77 | 103 | 1.0 | 6.0 | 0.00 | 0.00 | 0.00 | 45 | 1013.5 |
| 20260504000053 | 78 | 0 | 0.0 | 4.0 | 0.00 | 0.00 | 0.00 | 43 | 1013.5 |
| 20260503234551 | 80 | 88 | 1.0 | 6.0 | 0.00 | 0.00 | 0.00 | 42 | 1013.4 |
| 20260503233056 | 81 | 104 | 2.0 | 4.0 | 0.00 | 0.00 | 0.00 | 41 | 1013.6 |
| 20260503231548 | 81 | 0 | 0.0 | 3.0 | 0.00 | 0.00 | 0.00 | 31 | 1013.7 |
| 20260503230103 | 82 | 0 | 0.0 | 3.0 | 0.00 | 0.00 | 0.00 | 31 | 1013.7 |
| 20260503224558 | 81 | 0 | 1.0 | 3.0 | 0.00 | 0.00 | 0.00 | 31 | 1014.1 |
| 20260503223054 | 81 | 81 | 1.0 | 4.0 | 0.00 | 0.00 | 0.00 | 34 | 1014.0 |
| 20260503221556 | 81 | 0 | 0.0 | 9.0 | 0.00 | 0.00 | 0.00 | 31 | 1014.3 |
| 20260503220054 | 82 | 261 | 0.0 | 5.0 | 0.00 | 0.00 | 0.00 | 31 | 1014.5 |
| 20260503214553 | 81 | 64 | 4.0 | 7.0 | 0.00 | 0.00 | 0.00 | 31 | 1014.5 |
| 20260503213100 | 82 | 50 | 2.0 | 8.0 | 0.00 | 0.00 | 0.00 | 32 | 1015.1 |
| 20260503211610 | 81 | 0 | 1.0 | 5.0 | 0.00 | 0.00 | 0.00 | 31 | 1015.3 |
| 20260503210053 | 81 | 232 | 3.0 | 8.0 | 0.00 | 0.00 | 0.00 | 31 | 1015.5 |
| 20260503204553 | 80 | 121 | 2.0 | 8.0 | 0.00 | 0.00 | 0.00 | 32 | 1015.8 |
| 20260503203053 | 80 | 126 | 4.0 | 9.0 | 0.00 | 0.00 | 0.00 | 35 | 1016.2 |
| 20260503201554 | 79 | 105 | 6.0 | 13.0 | 0.00 | 0.00 | 0.00 | 35 | 1016.4 |
| 20260503194602 | 79 | 36 | 4.0 | 12.0 | 0.00 | 0.00 | 0.00 | 37 | 1017.1 |
| 20260503193101 | 78 | 96 | 6.0 | 13.0 | 0.00 | 0.00 | 0.00 | 38 | 1017.4 |
| 20260503191555 | 77 | 87 | 5.0 | 13.0 | 0.00 | 0.00 | 0.00 | 38 | 1017.7 |
| 20260503190056 | 76 | 81 | 6.0 | 12.0 | 0.00 | 0.00 | 0.00 | 40 | 1018.1 |
| 20260503184601 | 76 | 132 | 2.0 | 8.0 | 0.00 | 0.00 | 0.00 | 43 | 1018.6 |
| 20260503183048 | 75 | 150 | 4.0 | 7.0 | 0.00 | 0.00 | 0.00 | 45 | 1019.2 |
| 20260503181610 | 74 | 68 | 2.0 | 8.0 | 0.00 | 0.00 | 0.00 | 43 | 1019.4 |
| 20260503180110 | 73 | 82 | 1.0 | 7.0 | 0.00 | 0.00 | 0.00 | 45 | 1019.5 |
| 20260503174556 | 72 | 117 | 2.0 | 8.0 | 0.00 | 0.00 | 0.00 | 44 | 1019.9 |